TVS5J LKPR-LSZB

Flight info

Callsign TVS5J
Flight time 1h 1m
Altitude 8000
Route BALTU L984 OKG/N0473F430 N869 TEDGO/N0478F270 T724 SOLGO/N0465F250 T724 RILAX DCT ROTOS
Aircraft C700/M-SBDGHM1RWXY/LB2

Departure

Time 2026-04-24 15:11
Airport Václav Havel Airport Prague (LKPR)

Arrival

Time 2026-04-24 16:13
Airport Bern Airport (LSZB)
Time Latitude Longitude Altitude Speed Heading
2026-04-24 14:58 50.09927 14.28562 1203 ft 0 kts 189°
2026-04-24 15:07 50.09920 14.28560 1203 ft 3 kts 189°
2026-04-24 15:07 50.09891 14.28545 1204 ft 3 kts 228°
2026-04-24 15:08 50.09883 14.28490 1203 ft 10 kts 261°
2026-04-24 15:08 50.09860 14.28447 1203 ft 5 kts 188°
2026-04-24 15:08 50.09816 14.28459 1204 ft 9 kts 167°
2026-04-24 15:08 50.09786 14.28464 1205 ft 2 kts 205°
2026-04-24 15:09 50.09773 14.28401 1206 ft 11 kts 257°
2026-04-24 15:09 50.09751 14.28239 1206 ft 19 kts 258°
2026-04-24 15:09 50.09727 14.28054 1206 ft 17 kts 258°
2026-04-24 15:09 50.09701 14.27863 1202 ft 23 kts 259°
2026-04-24 15:10 50.09666 14.27719 1201 ft 11 kts 219°
2026-04-24 15:10 50.09593 14.27635 1203 ft 14 kts 217°
2026-04-24 15:10 50.09507 14.27541 1208 ft 16 kts 214°
2026-04-24 15:10 50.09423 14.27449 1213 ft 6 kts 215°
2026-04-24 15:11 50.09421 14.27394 1213 ft 8 kts 304°
2026-04-24 15:11 50.09556 14.27114 1209 ft 74 kts 308°
2026-04-24 15:11 50.10041 14.26111 1390 ft 145 kts 310°
2026-04-24 15:11 50.10728 14.24719 2397 ft 174 kts 308°
2026-04-24 15:12 50.11476 14.23139 3628 ft 187 kts 307°
2026-04-24 15:12 50.13149 14.19678 4999 ft 209 kts 307°
2026-04-24 15:12 50.13997 14.17916 4984 ft 197 kts 307°
2026-04-24 15:13 50.14680 14.16114 4974 ft 198 kts 284°
2026-04-24 15:13 50.14569 14.13947 5915 ft 202 kts 264°
2026-04-24 15:13 50.14422 14.11742 7262 ft 206 kts 270°
2026-04-24 15:13 50.14352 14.09481 8626 ft 209 kts 271°
2026-04-24 15:14 50.14270 14.07191 9988 ft 215 kts 272°
2026-04-24 15:14 50.14177 14.04822 11189 ft 221 kts 271°
2026-04-24 15:14 50.14079 14.02396 12340 ft 227 kts 271°
2026-04-24 15:14 50.13980 13.99930 13452 ft 234 kts 271°
2026-04-24 15:15 50.13877 13.97459 14769 ft 224 kts 271°
2026-04-24 15:15 50.13780 13.94926 15501 ft 243 kts 271°
2026-04-24 15:15 50.13674 13.92311 16664 ft 238 kts 270°
2026-04-24 15:15 50.13565 13.89750 17831 ft 235 kts 270°
2026-04-24 15:16 50.13462 13.87203 18903 ft 232 kts 270°
2026-04-24 15:16 50.13361 13.84725 19797 ft 234 kts 270°
2026-04-24 15:16 50.13256 13.82072 20168 ft 256 kts 270°
2026-04-24 15:16 50.13137 13.79210 20784 ft 273 kts 270°
2026-04-24 15:17 50.13009 13.76106 21193 ft 301 kts 269°
2026-04-24 15:17 50.12864 13.72677 21596 ft 329 kts 269°
2026-04-24 15:17 50.12706 13.68967 21944 ft 356 kts 269°
2026-04-24 15:17 50.12538 13.65133 22927 ft 361 kts 269°
2026-04-24 15:18 50.12366 13.61188 23923 ft 367 kts 269°
2026-04-24 15:18 50.12194 13.57180 24806 ft 372 kts 269°
2026-04-24 15:18 50.12017 13.53120 25688 ft 377 kts 269°
2026-04-24 15:18 50.11835 13.49028 26530 ft 382 kts 269°
2026-04-24 15:19 50.11651 13.44906 27357 ft 386 kts 269°
2026-04-24 15:19 50.11463 13.40702 28178 ft 391 kts 269°
2026-04-24 15:19 50.11270 13.36430 29009 ft 396 kts 269°
2026-04-24 15:19 50.11073 13.32119 29818 ft 401 kts 269°
2026-04-24 15:20 50.10872 13.27746 30470 ft 407 kts 269°
2026-04-24 15:20 50.10666 13.23303 31172 ft 410 kts 269°
2026-04-24 15:20 50.10460 13.18913 31829 ft 414 kts 269°
2026-04-24 15:20 50.10249 13.14427 32469 ft 417 kts 269°
2026-04-24 15:21 50.10033 13.09886 33091 ft 420 kts 269°
2026-04-24 15:21 50.09815 13.05323 33685 ft 423 kts 269°
2026-04-24 15:21 50.09592 13.00726 34219 ft 427 kts 269°
2026-04-24 15:21 50.09370 12.96163 34686 ft 430 kts 269°
2026-04-24 15:22 50.09140 12.91485 35151 ft 432 kts 269°
2026-04-24 15:22 50.08908 12.86793 35598 ft 435 kts 268°
2026-04-24 15:22 50.08673 12.82103 36186 ft 433 kts 268°
2026-04-24 15:23 50.08202 12.72795 37285 ft 429 kts 268°
2026-04-24 15:23 50.07733 12.63646 38238 ft 425 kts 268°
2026-04-24 15:23 50.07494 12.59058 38666 ft 424 kts 268°
2026-04-24 15:24 50.06769 12.45303 39456 ft 425 kts 268°
2026-04-24 15:25 50.05787 12.37753 39841 ft 431 kts 255°
2026-04-24 15:25 50.03268 12.27586 40330 ft 434 kts 252°
2026-04-24 15:26 49.99976 12.14454 40921 ft 436 kts 251°
2026-04-24 15:27 49.96641 12.01245 41473 ft 438 kts 251°
2026-04-24 15:27 49.93299 11.88048 41998 ft 439 kts 251°
2026-04-24 15:28 49.88866 11.70413 42699 ft 440 kts 251°
2026-04-24 15:29 49.86734 11.61467 43009 ft 441 kts 252°
2026-04-24 15:31 49.79320 11.32222 43119 ft 447 kts 251°
2026-04-24 15:32 49.72706 11.15758 43128 ft 466 kts 228°
2026-04-24 15:33 49.63614 11.01242 43126 ft 474 kts 228°
2026-04-24 15:34 49.52200 10.83125 43119 ft 468 kts 228°
2026-04-24 15:35 49.40794 10.65153 43154 ft 471 kts 227°
2026-04-24 15:36 49.36292 10.57826 43156 ft 470 kts 229°
2026-04-24 15:36 49.29404 10.47185 43149 ft 468 kts 227°
2026-04-24 15:37 49.24805 10.40105 43154 ft 469 kts 226°
2026-04-24 15:37 49.20197 10.33050 43178 ft 474 kts 227°
2026-04-24 15:38 49.15587 10.25829 43163 ft 472 kts 227°
2026-04-24 15:38 49.11370 10.18289 43161 ft 466 kts 233°
2026-04-24 15:39 49.07299 10.10606 43152 ft 464 kts 232°
2026-04-24 15:39 49.03221 10.02881 43152 ft 469 kts 232°
2026-04-24 15:40 48.99091 9.95105 43163 ft 472 kts 232°
2026-04-24 15:40 48.94999 9.87414 43157 ft 468 kts 232°
2026-04-24 15:41 48.90909 9.79752 43149 ft 466 kts 232°
2026-04-24 15:41 48.86804 9.72083 43146 ft 469 kts 232°
2026-04-24 15:42 48.82671 9.64387 43139 ft 470 kts 232°
2026-04-24 15:42 48.78568 9.56766 43137 ft 468 kts 232°
2026-04-24 15:43 48.74453 9.49148 43134 ft 465 kts 232°
2026-04-24 15:43 48.70337 9.41547 43138 ft 467 kts 232°
2026-04-24 15:44 48.66223 9.33969 43151 ft 469 kts 232°
2026-04-24 15:44 48.61968 9.26419 43145 ft 471 kts 225°
2026-04-24 15:45 48.56807 9.20285 43162 ft 471 kts 218°
2026-04-24 15:45 48.51576 9.14424 43157 ft 471 kts 218°
2026-04-24 15:46 48.46303 9.08548 43142 ft 471 kts 217°
2026-04-24 15:46 48.41040 9.02692 43142 ft 468 kts 218°
2026-04-24 15:47 48.35804 8.96883 43139 ft 466 kts 217°
2026-04-24 15:47 48.30590 8.91113 43137 ft 469 kts 217°
2026-04-24 15:48 48.25319 8.85239 43140 ft 472 kts 218°
2026-04-24 15:48 48.20060 8.79401 43140 ft 472 kts 217°
2026-04-24 15:49 48.14780 8.73573 43139 ft 469 kts 217°
2026-04-24 15:49 48.09493 8.67848 43138 ft 467 kts 217°
2026-04-24 15:50 48.04244 8.62128 43141 ft 471 kts 217°
2026-04-24 15:50 47.98892 8.56338 43146 ft 473 kts 217°
2026-04-24 15:51 47.93609 8.50625 43144 ft 470 kts 217°
2026-04-24 15:51 47.88289 8.44974 43143 ft 466 kts 216°
2026-04-24 15:52 47.83001 8.39360 43140 ft 466 kts 217°
2026-04-24 15:52 47.77727 8.33772 43147 ft 468 kts 216°
2026-04-24 15:53 47.75059 8.30958 42664 ft 472 kts 217°
2026-04-24 15:53 47.72397 8.28146 41860 ft 465 kts 216°
2026-04-24 15:53 47.69774 8.25376 41052 ft 458 kts 216°
2026-04-24 15:53 47.67219 8.22688 40278 ft 452 kts 216°
2026-04-24 15:54 47.64668 8.20008 39489 ft 445 kts 216°
2026-04-24 15:54 47.62154 8.17366 38691 ft 440 kts 216°
2026-04-24 15:54 47.59672 8.14762 37902 ft 431 kts 215°
2026-04-24 15:54 47.57244 8.12218 37157 ft 423 kts 215°
2026-04-24 15:55 47.54883 8.09747 36434 ft 416 kts 215°
2026-04-24 15:55 47.52538 8.07295 35714 ft 409 kts 215°
2026-04-24 15:55 47.50222 8.04876 35002 ft 404 kts 214°
2026-04-24 15:55 47.47945 8.02500 34302 ft 399 kts 214°
2026-04-24 15:56 47.45667 8.00128 33567 ft 394 kts 214°
2026-04-24 15:56 47.43467 7.97838 32890 ft 388 kts 214°
2026-04-24 15:56 47.41281 7.95564 32218 ft 383 kts 214°
2026-04-24 15:56 47.39120 7.93320 31552 ft 378 kts 214°
2026-04-24 15:57 47.36969 7.91087 30890 ft 375 kts 214°
2026-04-24 15:57 47.34844 7.88885 30234 ft 371 kts 214°
2026-04-24 15:57 47.32736 7.86701 29550 ft 366 kts 214°
2026-04-24 15:57 47.30661 7.84553 28913 ft 361 kts 214°
2026-04-24 15:58 47.28606 7.82431 28283 ft 356 kts 214°
2026-04-24 15:58 47.26616 7.80376 27666 ft 352 kts 214°
2026-04-24 15:58 47.24615 7.78311 27053 ft 349 kts 214°
2026-04-24 15:58 47.22636 7.76271 26452 ft 345 kts 214°
2026-04-24 15:59 47.20674 7.74242 25842 ft 343 kts 216°
2026-04-24 15:59 47.18935 7.71876 25245 ft 342 kts 228°
2026-04-24 15:59 47.17573 7.69019 24652 ft 341 kts 238°
2026-04-24 15:59 47.16380 7.66014 24058 ft 339 kts 238°
2026-04-24 16:00 47.15180 7.63029 23425 ft 338 kts 238°
2026-04-24 16:00 47.13986 7.60080 22827 ft 334 kts 238°
2026-04-24 16:00 47.12841 7.57131 22243 ft 330 kts 243°
2026-04-24 16:00 47.12113 7.54000 21678 ft 328 kts 256°
2026-04-24 16:01 47.11613 7.50741 21106 ft 325 kts 256°
2026-04-24 16:01 47.11106 7.47516 20537 ft 323 kts 256°
2026-04-24 16:01 47.10594 7.44315 19971 ft 320 kts 256°
2026-04-24 16:01 47.10089 7.41139 19414 ft 318 kts 256°
2026-04-24 16:02 47.09530 7.37995 18845 ft 315 kts 249°
2026-04-24 16:02 47.08343 7.35409 18280 ft 309 kts 220°
2026-04-24 16:02 47.06453 7.34056 17733 ft 303 kts 191°
2026-04-24 16:02 47.04383 7.34281 17214 ft 299 kts 161°
2026-04-24 16:03 47.02642 7.35890 16708 ft 296 kts 136°
2026-04-24 16:03 47.01348 7.38216 16193 ft 295 kts 122°
2026-04-24 16:03 47.00487 7.40933 15679 ft 293 kts 108°
2026-04-24 16:03 46.99860 7.43765 15171 ft 292 kts 107°
2026-04-24 16:04 46.99212 7.46585 14665 ft 291 kts 108°
2026-04-24 16:04 46.98552 7.49361 14154 ft 291 kts 108°
2026-04-24 16:04 46.97888 7.52160 13621 ft 290 kts 107°
2026-04-24 16:04 46.97233 7.54960 13105 ft 287 kts 107°
2026-04-24 16:05 46.95847 7.60251 12122 ft 269 kts 120°
2026-04-24 16:05 46.94761 7.62429 11662 ft 260 kts 127°
2026-04-24 16:06 46.92636 7.66564 10780 ft 249 kts 127°
2026-04-24 16:06 46.91606 7.68567 10349 ft 244 kts 127°
2026-04-24 16:06 46.89135 7.71738 9484 ft 235 kts 145°
2026-04-24 16:07 46.87799 7.73121 8957 ft 235 kts 144°
2026-04-24 16:07 46.86429 7.74414 8518 ft 232 kts 155°
2026-04-24 16:07 46.83319 7.74886 7733 ft 225 kts 193°
2026-04-24 16:08 46.81870 7.74062 7344 ft 222 kts 211°
2026-04-24 16:08 46.79828 7.70849 6579 ft 218 kts 246°
2026-04-24 16:09 46.79252 7.66967 5899 ft 183 kts 266°
2026-04-24 16:09 46.79433 7.65187 5592 ft 176 kts 290°
2026-04-24 16:09 46.79788 7.64131 5396 ft 171 kts 304°
2026-04-24 16:09 46.80898 7.62524 5007 ft 167 kts 322°
2026-04-24 16:10 46.83551 7.59280 4115 ft 167 kts 321°
2026-04-24 16:11 46.85234 7.57255 3548 ft 134 kts 318°
2026-04-24 16:11 46.85923 7.56412 3291 ft 124 kts 317°
2026-04-24 16:11 46.86599 7.55585 3103 ft 129 kts 318°
2026-04-24 16:12 46.87976 7.53903 2653 ft 129 kts 320°
2026-04-24 16:12 46.88656 7.53072 2441 ft 129 kts 320°
2026-04-24 16:12 46.90046 7.51389 1976 ft 129 kts 322°
2026-04-24 16:13 46.90708 7.50576 1722 ft 120 kts 321°
2026-04-24 16:13 46.91359 7.49783 1680 ft 6 kts 338°
2026-04-24 16:14 46.91403 7.49838 1675 ft 4 kts 53°
2026-04-24 16:14 46.91387 7.49887 1677 ft 9 kts 140°
2026-04-24 16:14 46.91289 7.50015 1675 ft 4 kts 114°
2026-04-24 16:15 46.91290 7.50032 1686 ft 5 kts 71°
2026-04-24 16:15 46.91308 7.50098 1698 ft 0 kts 89°